Regional Weather Roundup
Issued by NWS Midland/Odessa, TX

Skip options and go directly to product.
Home | Oldest Version | Previous Version | Current Version | All | Text Only | Save Text | Print | Product List | Glossary Off

Skip product version selection by date and time.   

620
ASUS44 KMAF 170710
RWRMAF
MIDLAND AREA WEATHER ROUNDUP
NATIONAL WEATHER SERVICE MIDLAND TX
200 AM CDT THU APR 17 2014

...IN SOUTHWEST TEXAS AND SOUTHEAST NEW MEXICO...

CITY           SKY/WX    TMP DP  RH WIND       PRES   REMARKS
ALPINE         CLEAR     63  18  17 SW7       29.94R
ANDREWS        FAIR      55  36  49 S13G18    29.82S
ARTESIA        CLOUDY    59  25  27 N30G39    29.87R
BIG SPRING     CLEAR     59  36  42 SE18G26   29.86F
CARLSBAD       MOCLDY    59  30  33 S9        29.80R
DRYDEN           N/A     59  42  53 E7        29.84S
FORT STOCKTON  CLEAR     57  37  47 SE18G26   29.83F
GUAD PASS      PTCLDY    61   1   9 SW12      29.92R
HOBBS          CLEAR     54  32  43 S10       29.83R
MARFA          CLEAR     46  16  29 N10       29.94R
MIDLAND AIRPK  CLEAR     58  38  46 S17       29.83S
MIDLAND INTL   CLEAR     57  38  48 S17       29.82F
ODESSA         CLEAR     58  38  47 S18       29.83S
PECOS          PTCLDY    56  33  40 E9        29.77S
PRESIDIO       FAIR      67  19  16 N12       29.81R
SEMINOLE       CLEAR     54  34  47 S8        29.84S
SNYDER         CLEAR     57  35  44 SE12      29.87S
WINK           PTCLDY    58  38  47 SE17      29.78R
$$
...OTHER STATIONS IN TEXAS...

CITY           SKY/WX    TMP DP  RH WIND       PRES   REMARKS
ABILENE        CLEAR     57  39  51 SE18G25   29.89S
AMARILLO       PTCLDY    51  27  39 E18G31    29.98R
AUSTIN         CLOUDY    56  50  80 SE5       30.00F
BROWNSVILLE    CLOUDY    63  59  87 SE5       29.95F
CORPUS CHRISTI CLOUDY    67  58  72 SE8       29.98S
DALLAS FTW     CLEAR     53  40  61 E8        30.04R
DEL RIO        CLOUDY    64  50  60 SE15G25   29.89R
EL PASO        CLOUDY    70   1   6 W16       29.87R
HOUSTON INT    CLOUDY    54  52  93 E7        30.05S
LUBBOCK        CLOUDY    58  32  37 S21       29.82S
SAN ANGELO     CLEAR     52  36  54 E8        29.88S
SAN ANTONIO    CLOUDY    60  51  72 SE9       29.99F
WACO           PTCLDY    53  47  79 SE10      30.02S
WICHITA FALLS  NOT AVBL
$$
...OTHER LOCATIONS IN NEW MEXICO...

CITY           SKY/WX    TMP DP  RH WIND       PRES   REMARKS
ALAMAGORDO     CLOUDY    64   1   8 NE10      29.85R
ALBUQUERQUE    CLOUDY    56  24  29 NE7       30.00R
CANNON AFB     CLEAR     51  28  40 N25G37    29.91R
CLOVIS         MOCLDY    52  27  37 N24G31    29.92R
HOLLOMAN AFB   CLOUDY    69   8   9 NE10      29.84R
ROSWELL        CLOUDY    60  26  27 N32G40    29.89R
RUIDOSO        CLOUDY    46  21  36 N20G31    30.04R WCI  39
SANTA FE       MOCLDY    46  30  53 S7        30.02R
TRUTH OR CONSE CLEAR     62   9  12 NW8       29.91R
TUCUMCARI      MOCLDY    52  27  38 NE23G35   30.00R
$$

USA.gov is the U.S. government's official web portal to all federal, state and local government web resources and services.